Regional Weather Roundup
Issued by NWS

Home | Current Version | Previous Version | Text Only | Print | Product List | Glossary On
Versions: 1 2 3 4 5 6 7 8 9 10 11 12 13 14 15 16 17 18 19 20 21 22 23 24 25 26 27 28 29 30 31 32 33 34 35 36 37 38 39 40 41 42 43 44
000
ASUS45 KREV 281410
RWRNV
NEVADA REGIONAL WEATHER ROUNDUP
NATIONAL WEATHER SERVICE RENO NV
600 AM PST SUN DEC 28 2014

NOTE: "FAIR" INDICATES FEW OR NO CLOUDS BELOW 12,000 FEET WITH NO
SIGNIFICANT WEATHER AND/OR OBSTRUCTIONS TO VISIBILITY.

NVZ001-003-004-281500-
WESTERN NEVADA

CITY           SKY/WX    TMP DP  RH WIND       PRES   REMARKS
RENO           MOCLDY    26  20  77 CALM      30.22S
CARSON CITY    FAIR      25  19  80 NW6       30.22S
MINDEN         CLOUDY    23  19  86 E3        30.23
SLIDE MTN        N/A     25  14  63 N18         N/A
PYRAMID LAKE     N/A     36 N/A N/A SW8         N/A
FALLON         CLOUDY    27  14  58 S10       30.20F
LOVELOCK       MOCLDY    19  14  81 CALM      30.21S
HAWTHORNE      CLEAR     27  18  69 CALM      30.23S
$$

NVZ002-CAZ072-073-281500-
NORTHERN AND CENTRAL SIERRA

CITY           SKY/WX    TMP DP  RH WIND       PRES   REMARKS
S. LAKE TAHOE  MOCLDY    30  17  58 S7        30.22S
TRUCKEE        PTCLDY    19  16  86 CALM      30.23S
SQUAW VLY 8000   N/A     32  25  74 VRB23       N/A
SUSANVILLE     CLOUDY   N/A N/A N/A CALM        N/A
BLUE CANYON    PTCLDY    36   9  32 CALM      30.25F
MAMMOTH LAKES  FAIR      19   9  63 CALM      30.21S
BRIDGEPORT     CLOUDY    20  13  74 CALM      30.19S
$$

NVZ030-031-036-281500-
NORTHERN NEVADA

CITY           SKY/WX    TMP DP  RH WIND       PRES   REMARKS
ELKO           MOCLDY    29  17  61 SW6       30.09F
WINNEMUCCA     CLOUDY    34  20  56 S7        30.14S
WENDOVER       PTCLDY    19  14  79 CALM      30.07S
$$

NVZ035-037-281500-
CENTRAL NEVADA

CITY           SKY/WX    TMP DP  RH WIND       PRES   REMARKS
ELY            CLOUDY    17   9  70 S8        30.15R
EUREKA           N/A     25  14  63 SW10      30.14S
$$

NVZ013-014-281500-
SOUTH CENTRAL NEVADA

CITY           SKY/WX    TMP DP  RH WIND       PRES   REMARKS
TONOPAH        CLOUDY    18   9  68 NE5       30.20F
$$

NVZ017-020-022-281500-
SOUTHERN NEVADA

CITY           SKY/WX    TMP DP  RH WIND       PRES   REMARKS
LAS VEGAS      MOCLDY    34  13  41 S7        30.24S
N. LAS VEGAS   MOCLDY    33  11  39 CALM      30.27S
NELLIS AFB     MOCLDY    28  14  55 CALM      30.29S
HENDERSON      MOCLDY    32  12  43 S8        30.28R
MERCURY        NOT AVBL
$$


USA.gov is the U.S. government's official web portal to all federal, state and local government web resources and services.